Location: Beaver Brook Station
(42.3793°N, 71.2203°W)
Time: 01:40:58
(UTC+00:00)

Cosmos 1689 Rocket - Pass Details

Date: 29 October 2020
Orbit: 360 x 373 km, 97.5° (Epoch: 05 December)

Event Time Altitude Azimuth Distance (km) Brightness Sun altitude
Exits shadow 22:57:03 - 11° (N) 2,018 5.5 -14.5°
Reaches altitude 10° 22:58:34 10° 10° (N) 1,352 4.7 -14.8°
Maximum altitude 23:01:26 80° 284° (WNW) 372 2.0 -15.3°
Drops below altitude 10° 23:04:16 10° 197° (SSW) 1,339 5.1 -15.8°
Sets 23:06:11 0° 196° (SSW) 2,180 6.1 -16.2°
